Location: Edisto_Beach
(32.4790°N, 80.3350°W)
Time: 15:23:50
(UTC-04:00)

Amateur Radio Satellites - All Passes

Search period start: 27 August 2015 14:53
Search period end: 28 August 2015 14:53
Location: Edisto_Beach, 32.4790°N, 80.3350°W

Satellite Date Start Highest point End Downlink Frequencies (MHz)
Time Altitude Azimuth
Gurwin Techsat 1B 27 Aug 14:54:51 15:00:08 74° 77° (ENE) 15:05:27 435.225
Oscar 19 27 Aug 14:55:09 14:59:40 30° 264° (W) 15:04:08 437.125/150
Cosmos 2499 27 Aug 15:02:51 15:05:38 12° 62° (ENE) 15:09:08 435.465 / 435.565
JAS-2 27 Aug 15:04:30 15:11:26 47° 71° (ENE) 15:18:53 435.910
BEESAT 27 Aug 15:29:11 15:33:54 63° 284° (WNW) 15:38:35 436.000
AO-7 27 Aug 15:30:37 15:37:53 36° 65° (ENE) 15:45:19 29.400- 29.500
ITAMSAT 1 27 Aug 15:42:27 15:47:22 43° 261° (W) 15:52:17 435.822/435.867
BEESAT 3 27 Aug 15:46:57 15:50:02 22° 112° (ESE) 15:53:14 437.485
BEESAT 2 27 Aug 15:51:53 15:54:38 18° 111° (ESE) 15:57:32 435.950
SWISSCUBE 27 Aug 15:54:51 15:59:00 30° 288° (WNW) 16:03:05 437.505
STARS 27 Aug 16:17:47 16:21:52 36° 98° (E) 16:25:59 437.465
RS-15 27 Aug 16:21:24 16:30:46 37° 108° (ESE) 16:40:40 29.354- 29.394
JUGNU 27 Aug 16:22:27 16:26:50 22° 174° (S) 16:31:13 437.505
KKS-1 27 Aug 16:23:31 16:28:02 79° 102° (ESE) 16:32:30 437.445
HORYU 2 27 Aug 16:27:42 16:32:09 66° 75° (ENE) 16:36:37 437.375
GONETS M04 27 Aug 16:28:20 16:36:22 40° 271° (W) 16:44:15
ITUPSAT 1 27 Aug 16:32:16 16:34:51 14° 292° (WNW) 16:37:13 437.325
JAS-2 27 Aug 16:50:13 16:56:39 31° 267° (W) 17:03:14 435.910
Cosmos 2499 27 Aug 16:51:50 17:00:35 79° 83° (E) 17:08:43 435.465 / 435.565
AO-7 27 Aug 17:22:37 17:30:32 44° 260° (W) 17:38:21 29.400- 29.500
SRMSAT 27 Aug 17:23:10 17:27:11 19° 170° (S) 17:31:14 437.500
BEESAT 3 27 Aug 17:24:28 17:27:51 25° 305° (NW) 17:31:13 437.485
BEESAT 2 27 Aug 17:28:51 17:32:29 29° 304° (NW) 17:36:06 435.950
AIST 2 27 Aug 17:30:52 17:34:55 47° 115° (ESE) 17:39:01 435.215
CUTE-I 27 Aug 17:33:42 17:35:16 12° 65° (ENE) 17:37:10 437.470
MOZHAYETS 4 27 Aug 17:36:50 17:41:23 66° 100° (E) 17:45:53
STARS 27 Aug 17:55:12 17:58:02 16° 291° (WNW) 18:00:42 437.465
JUGNU 27 Aug 18:10:48 18:15:16 22° 184° (S) 18:19:42 437.505
Cubesat XI-IV 27 Aug 18:23:29 18:28:21 39° 72° (ENE) 18:33:17 437.490
ISS 27 Aug 18:25:25 18:28:39 63° 44° (NE) 18:31:51 145.825
RS-15 27 Aug 18:32:13 18:42:49 53° 306° (NW) 18:53:45 29.354- 29.394
Cosmos 2499 27 Aug 18:47:37 18:52:47 17° 278° (W) 18:57:13 435.465 / 435.565
CUTE-I 27 Aug 19:09:29 19:14:48 73° 257° (WSW) 19:20:08 437.470
SRMSAT 27 Aug 19:11:09 19:15:46 24° 180° (S) 19:20:25 437.500
AIST 2 27 Aug 19:11:24 19:13:46 14° 310° (NW) 19:15:59 435.215
CUBESAT XI-V 27 Aug 19:17:03 19:21:39 65° 100° (E) 19:26:16 437.345
O/OREOS (USA 219) 27 Aug 19:40:15 19:43:52 25° 103° (ESE) 19:47:36 437.305
DOVE 4 27 Aug 19:53:30 19:55:25 13° 67° (ENE) 19:57:38 437.250
HO-68 27 Aug 19:56:03 20:01:19 24° 65° (ENE) 20:06:52 435.675
BRITE-PL 27 Aug 19:58:46 20:02:46 46° 75° (ENE) 20:07:01 437.365/2234.400
AIST 1 27 Aug 20:00:15 20:03:52 26° 78° (ENE) 20:07:33
JUGNU 27 Aug 20:00:23 20:03:40 15° 193° (SSW) 20:06:52 437.505
Cubesat XI-IV 27 Aug 20:04:35 20:08:36 21° 266° (W) 20:12:27 437.490
PRISM 27 Aug 20:12:24 20:16:15 40° 99° (E) 20:20:08 437.425
STRAND 1 27 Aug 20:26:16 20:31:23 84° 103° (ESE) 20:36:30 437.568
COMPASS 1 27 Aug 20:37:58 20:40:36 17° 71° (ENE) 20:43:24 437.405
Cosmos 2491 27 Aug 20:40:37 20:48:25 36° 75° (ENE) 20:56:24 435.465 / 435.565
YUBILEINY 27 Aug 20:47:09 20:52:14 18° 83° (E) 20:57:54 435.215
GOMX 1 27 Aug 20:51:43 20:55:59 73° 259° (W) 21:00:33 467.674
AAUSAT CUBESAT 2 27 Aug 20:51:59 20:55:03 21° 72° (ENE) 20:58:14 437.432
RS-15 27 Aug 20:53:00 20:58:57 15° 335° (NNW) 21:04:28 29.354- 29.394
CUTE 1.7 + AOD 2 27 Aug 20:58:40 21:02:50 51° 76° (ENE) 21:07:01 437.475
SRMSAT 27 Aug 21:00:12 21:04:22 20° 189° (S) 21:08:31 437.500
CINEMA 3 27 Aug 21:11:18 21:15:32 42° 74° (ENE) 21:20:02 145.822/145.860
CANX-2 27 Aug 21:11:45 21:16:03 87° 79° (E) 21:20:22 2200.000
O/OREOS (USA 219) 27 Aug 21:19:32 21:23:14 24° 297° (WNW) 21:26:52 437.305
Oscar 11 27 Aug 21:22:48 21:26:00 21° 71° (ENE) 21:29:18 145.826/435.025
DOVE 4 27 Aug 21:28:30 21:32:44 47° 262° (W) 21:37:13 437.250
CUBEBUG 2 27 Aug 21:33:42 21:37:42 32° 72° (ENE) 21:41:52 437.445
AIST 1 27 Aug 21:38:17 21:41:21 18° 270° (W) 21:44:17
BRITE-PL 27 Aug 21:40:58 21:41:47 10° 271° (W) 21:42:17 437.365/2234.400
HO-68 27 Aug 21:41:39 21:48:38 56° 259° (W) 21:55:40 435.675
SEEDS 27 Aug 21:41:55 21:46:07 57° 260° (W) 21:50:18 437.485
DELFI C3 27 Aug 21:49:24 21:52:44 25° 73° (ENE) 21:56:07 145.870
PRISM 27 Aug 21:49:31 21:51:22 12° 291° (WNW) 21:53:01 437.425
UWE-3 27 Aug 21:50:28 21:54:37 38° 73° (ENE) 21:58:55 435.000/436.395/437.385
ZACube-1 27 Aug 21:54:33 21:58:27 31° 73° (ENE) 22:02:31 437.345
FUNcube-1 27 Aug 22:01:58 22:06:03 37° 74° (ENE) 22:10:15 145.935
COMPASS 1 27 Aug 22:12:17 22:16:03 31° 263° (W) 22:19:47 437.405
AAUSAT CUBESAT 2 27 Aug 22:27:02 22:30:31 25° 264° (W) 22:33:57 437.432
Cosmos 2491 27 Aug 22:37:19 22:45:20 41° 271° (W) 22:53:14 435.465 / 435.565
YUBILEINY 27 Aug 22:39:31 22:48:16 75° 278° (W) 22:57:06 435.215
DX 1 27 Aug 22:42:48 22:46:13 24° 71° (ENE) 22:49:44 434.975-435.025
AISAT 27 Aug 22:46:42 22:49:23 17° 70° (ENE) 22:52:15 437.250
CINEMA 3 27 Aug 22:50:25 22:53:02 14° 270° (W) 22:55:28 145.822/145.860
SRMSAT 27 Aug 22:52:02 22:52:56 10° 197° (SSW) 22:53:41 437.500
UNISAT 6 27 Aug 22:52:11 22:54:50 16° 92° (E) 22:57:38 437.425
Oscar 11 27 Aug 22:58:20 23:02:02 26° 264° (W) 23:05:41 145.826/435.025
50 SAT 27 Aug 23:01:12 23:04:28 26° 73° (ENE) 23:07:49 437.505
UKube-1 27 Aug 23:02:17 23:06:11 36° 73° (ENE) 23:10:10 .
CUBEBUG 1 27 Aug 23:02:33 23:04:34 13° 69° (ENE) 23:06:47 437.445
CUBEBUG 2 27 Aug 23:11:10 23:14:27 19° 267° (W) 23:17:40 437.445
VELOX 1 27 Aug 23:14:58 23:18:54 33° 73° (ENE) 23:22:53 145.980
RS-15 27 Aug 23:17:18 23:18:49 10° 12° (NNE) 23:20:42 29.354- 29.394
HUMSAT D 27 Aug 23:17:54 23:22:10 70° 260° (W) 23:26:30 437.325/437.525
TIGRISAT 27 Aug 23:21:31 23:25:39 33° 97° (E) 23:29:43 435.000
DELFI C3 27 Aug 23:24:52 23:27:47 18° 266° (W) 23:30:34 145.870
POPSAT HIP 1 27 Aug 23:25:05 23:26:13 11° 91° (E) 23:27:39 437.405
UWE-3 27 Aug 23:28:30 23:31:20 16° 269° (W) 23:34:00 435.000/436.395/437.385
DUCHIFAT 1 27 Aug 23:29:21 23:30:59 12° 91° (E) 23:32:51 145.980
Cosmos 2504 27 Aug 23:31:13 23:37:35 29° 86° (E) 23:44:33 435.465 / 435.565
ZACube-1 27 Aug 23:31:39 23:34:53 19° 267° (W) 23:38:01 437.345
ANTELSAT 27 Aug 23:36:20 23:40:50 53° 100° (E) 23:45:12 437.575/2403.000
QB50P2 27 Aug 23:39:15 23:42:10 18° 94° (E) 23:45:14 145.880/145.840
FUNcube-1 27 Aug 23:39:42 23:42:32 16° 268° (W) 23:45:11 145.935
NANOSAT C BR1 27 Aug 23:43:52 23:46:56 20° 94° (E) 23:50:08 145.865
ESTCUBE 1 27 Aug 23:50:50 23:55:18 67° 76° (ENE) 23:59:46 437.505/2401.250
QB50P1 27 Aug 23:55:04 23:58:44 28° 96° (E) 00:02:26 145.935-145.965
BUGSAT 1 27 Aug 23:56:36 23:59:11 16° 93° (E) 00:01:57 437.445
AUBIESAT-1 28 Aug 00:06:18 00:10:17 88° 293° (WNW) 00:13:56 437.475
M-CUBED/EXP-1 PRIME 28 Aug 00:07:04 00:11:06 69° 289° (WNW) 00:14:46 437.505
DX 1 28 Aug 00:18:56 00:22:24 23° 265° (W) 00:25:47 434.975-435.025
AISAT 28 Aug 00:21:41 00:25:43 34° 263° (W) 00:29:43 437.250
CUSAT 1 28 Aug 00:24:16 00:25:40 12° 85° (E) 00:27:25 437.405
UNISAT 6 28 Aug 00:27:32 00:31:48 37° 287° (WNW) 00:35:54 437.425
50 SAT 28 Aug 00:36:18 00:39:01 17° 266° (W) 00:41:35 437.505
CUBEBUG 1 28 Aug 00:36:31 00:40:36 41° 262° (W) 00:44:41 437.445
TISAT 1 28 Aug 00:36:53 00:40:22 27° 72° (ENE) 00:43:57 437.305
UKube-1 28 Aug 00:39:58 00:42:29 15° 267° (W) 00:44:47 .
YUBILEINY 28 Aug 00:44:20 00:46:57 11° 299° (WNW) 00:48:41 435.215
SPROUT 28 Aug 00:49:37 00:53:52 73° 77° (ENE) 00:58:09 437.525
VELOX 1 28 Aug 00:52:42 00:55:33 16° 267° (W) 00:58:14 145.980
POLYITAN 1 28 Aug 00:53:44 00:57:56 51° 285° (WNW) 01:02:06 437.675
POPSAT HIP 1 28 Aug 00:58:15 01:02:23 46° 285° (WNW) 01:06:29 437.405
TIGRISAT 28 Aug 00:58:57 01:02:09 18° 290° (WNW) 01:05:08 435.000
DUCHIFAT 1 28 Aug 01:02:57 01:07:01 42° 285° (WNW) 01:11:02 145.980
QB50P2 28 Aug 01:14:21 01:18:06 29° 287° (WNW) 01:21:45 145.880/145.840
ANTELSAT 28 Aug 01:15:21 01:17:09 12° 293° (WNW) 01:18:41 437.575/2403.000
NANOSAT C BR1 28 Aug 01:19:08 01:22:46 27° 288° (WNW) 01:26:19 145.865
SWISSCUBE 28 Aug 01:20:39 01:23:22 16° 69° (ENE) 01:26:18 437.505
Cosmos 2504 28 Aug 01:21:53 01:29:26 48° 282° (WNW) 01:37:27 435.465 / 435.565
RS-15 28 Aug 01:26:47 01:36:52 32° 45° (NE) 01:47:33 29.354- 29.394
BUGSAT 1 28 Aug 01:30:55 01:34:44 32° 287° (WNW) 01:38:29 437.445
QB50P1 28 Aug 01:31:17 01:34:26 19° 289° (WNW) 01:37:25 145.935-145.965
Oscar 19 28 Aug 01:33:54 01:35:58 13° 90° (E) 01:38:23 437.125/150
BEESAT 3 28 Aug 01:46:20 01:50:11 44° 58° (ENE) 01:53:59 437.485
BEESAT 2 28 Aug 01:51:40 01:55:26 37° 57° (ENE) 01:59:09 435.950
ITUPSAT 1 28 Aug 01:55:13 01:59:28 33° 72° (ENE) 02:03:46 437.325
PCSat 28 Aug 01:56:52 01:59:21 14° 105° (ESE) 02:02:11 145.827
DANDE 28 Aug 01:59:52 02:02:38 42° 283° (WNW) 02:06:05 436.750
CUSAT 1 28 Aug 02:05:11 02:07:50 21° 290° (WNW) 02:10:57 437.405
SO-50 28 Aug 02:10:53 02:15:24 47° 114° (ESE) 02:20:05 436.795
TISAT 1 28 Aug 02:13:06 02:16:08 19° 266° (W) 02:19:04 437.305
BEESAT 28 Aug 02:30:47 02:35:34 87° 76° (ENE) 02:40:21 436.000
SWISSCUBE 28 Aug 02:56:21 03:00:55 43° 261° (W) 03:05:27 437.505
Oscar 19 28 Aug 03:10:39 03:15:46 59° 286° (WNW) 03:20:51 437.125/150
STARS 28 Aug 03:11:01 03:14:00 19° 70° (ENE) 03:17:10 437.465
Gurwin Techsat 1B 28 Aug 03:15:57 03:20:59 43° 98° (E) 03:26:01 435.225
KKS-1 28 Aug 03:17:10 03:21:17 39° 73° (ENE) 03:25:28 437.445
GONETS M04 28 Aug 03:26:31 03:34:42 50° 91° (E) 03:43:00
BEESAT 3 28 Aug 03:26:31 03:27:44 11° 251° (WSW) 03:28:42 437.485
BEESAT 2 28 Aug 03:31:05 03:33:10 13° 250° (WSW) 03:35:03 435.950
ITUPSAT 1 28 Aug 03:33:54 03:37:26 20° 266° (W) 03:40:48 437.325
AIST 2 28 Aug 03:35:00 03:39:09 76° 244° (WSW) 03:43:14 435.215
PCSat 28 Aug 03:36:59 03:42:20 60° 298° (WNW) 03:47:41 145.827
RS-15 28 Aug 03:38:33 03:50:28 72° 246° (WSW) 04:02:38 29.354- 29.394
AO-7 28 Aug 03:40:16 03:43:05 13° 89° (E) 03:46:43 29.400- 29.500
SO-50 28 Aug 03:52:55 03:56:15 18° 311° (NW) 03:59:30 436.795
ITAMSAT 1 28 Aug 03:59:36 04:04:48 83° 282° (WNW) 04:09:59 435.822/435.867
JAS-2 28 Aug 04:05:01 04:11:58 58° 99° (E) 04:18:04 435.910
HORYU 2 28 Aug 04:24:37 04:27:35 18° 94° (E) 04:30:42 437.375
VERMONT LUNAR 28 Aug 04:26:00 04:28:08 18° 144° (SE) 04:30:19 437.305
MOZHAYETS 4 28 Aug 04:34:15 04:38:27 36° 74° (ENE) 04:42:42
STARS 28 Aug 04:46:21 04:50:15 30° 263° (W) 04:54:08 437.465
KKS-1 28 Aug 04:55:36 04:58:07 14° 268° (W) 05:00:25 437.445
Gurwin Techsat 1B 28 Aug 04:56:54 05:00:40 19° 292° (WNW) 05:04:15 435.225
Cosmos 2499 28 Aug 05:21:09 05:29:16 72° 93° (E) 05:37:58 435.465 / 435.565
GONETS M04 28 Aug 05:24:30 05:31:53 29° 288° (WNW) 05:39:03
AO-7 28 Aug 05:28:46 05:37:07 85° 107° (ESE) 05:45:25 29.400- 29.500
JAS-2 28 Aug 05:51:17 05:56:24 21° 296° (WNW) 06:00:52 435.910
O/OREOS (USA 219) 28 Aug 05:54:30 05:58:10 24° 63° (ENE) 06:01:55 437.305
RS-15 28 Aug 05:56:44 06:01:38 12° 259° (W) 06:05:08 29.354- 29.394
HORYU 2 28 Aug 06:00:19 06:04:18 31° 288° (WNW) 06:08:11 437.375
VERMONT LUNAR 28 Aug 06:01:30 06:04:26 53° 337° (NNW) 06:07:22 437.305
MOZHAYETS 4 28 Aug 06:12:43 06:15:48 17° 267° (W) 06:18:42
CUBESAT XI-V 28 Aug 06:16:02 06:20:14 36° 74° (ENE) 06:24:27 437.345
Cubesat XI-IV 28 Aug 06:45:54 06:49:56 22° 94° (E) 06:54:08 437.490
PRISM 28 Aug 06:59:03 07:01:35 17° 70° (ENE) 07:04:15 437.425
PHONESAT 2.4 28 Aug 07:00:03 07:03:08 33° 146° (SSE) 07:06:15 2401.200-2431.200
Cosmos 2499 28 Aug 07:17:27 07:23:27 20° 293° (WNW) 07:29:12 435.465 / 435.565
AO-7 28 Aug 07:23:45 07:29:04 18° 301° (WNW) 07:33:57 29.400- 29.500
CUTE-I 28 Aug 07:31:16 07:36:33 67° 101° (ESE) 07:41:51 437.470
O/OREOS (USA 219) 28 Aug 07:33:43 07:37:34 26° 257° (WSW) 07:41:17 437.305
STRAND 1 28 Aug 07:37:28 07:42:33 75° 76° (ENE) 07:47:39 437.568
VERMONT LUNAR 28 Aug 07:39:04 07:41:18 19° 353° (N) 07:43:30 437.305
CUBESAT XI-V 28 Aug 07:54:49 07:57:49 16° 267° (W) 08:00:37 437.345
BRITE-PL 28 Aug 08:07:19 08:11:55 28° 95° (E) 08:16:45 437.365/2234.400
Cubesat XI-IV 28 Aug 08:25:18 08:30:08 36° 288° (WNW) 08:34:55 437.490
AIST 1 28 Aug 08:25:33 08:28:31 19° 90° (E) 08:31:37
PRISM 28 Aug 08:33:09 08:36:48 30° 262° (W) 08:40:24 437.425
PHONESAT 2.4 28 Aug 08:37:45 08:40:59 41° 340° (NNW) 08:44:14 2401.200-2431.200
CUTE 1.7 + AOD 2 28 Aug 08:50:24 08:52:04 12° 91° (E) 08:54:00 437.475
YUBILEINY 28 Aug 08:55:46 09:04:03 45° 77° (ENE) 09:12:23 435.215
GOMX 1 28 Aug 08:57:21 09:02:38 51° 99° (E) 09:07:59 467.674
CANX-2 28 Aug 09:02:30 09:05:36 21° 94° (E) 09:08:50 2200.000
CINEMA 3 28 Aug 09:11:58 09:14:57 16° 91° (E) 09:18:07 145.822/145.860
CUTE-I 28 Aug 09:13:43 09:16:08 13° 294° (WNW) 09:18:15 437.470
HO-68 28 Aug 09:14:34 09:21:04 37° 98° (E) 09:27:39 435.675
VERMONT LUNAR 28 Aug 09:16:05 09:18:22 20° 9° (N) 09:20:42 437.305
ISS 28 Aug 09:25:51 09:28:00 17° 128° (SE) 09:30:13 145.825
SEEDS 28 Aug 09:31:01 09:34:45 31° 97° (E) 09:38:30 437.485
DOVE 4 28 Aug 09:31:23 09:36:42 68° 100° (E) 09:41:57 437.250
Cosmos 2491 28 Aug 09:35:39 09:43:50 49° 90° (E) 09:52:08 435.465 / 435.565
BRITE-PL 28 Aug 09:45:30 09:50:23 33° 287° (WNW) 09:55:20 437.365/2234.400
UWE-3 28 Aug 09:47:29 09:48:43 11° 89° (E) 09:50:15 435.000/436.395/437.385
COMPASS 1 28 Aug 09:59:39 10:03:44 56° 100° (E) 10:07:47 437.405
AIST 1 28 Aug 10:02:32 10:06:02 24° 283° (WNW) 10:09:29
AAUSAT CUBESAT 2 28 Aug 10:13:32 10:17:40 71° 101° (E) 10:21:46 437.432
TIGRISAT 28 Aug 10:16:22 10:19:28 19° 70° (ENE) 10:22:47 435.000
PHONESAT 2.4 28 Aug 10:16:45 10:19:24 21° 357° (N) 10:22:03 2401.200-2431.200
CUTE 1.7 + AOD 2 28 Aug 10:24:15 10:28:13 39° 286° (WNW) 10:32:08 437.475
ANTELSAT 28 Aug 10:30:48 10:34:43 28° 72° (ENE) 10:38:46 437.575/2403.000
GOMX 1 28 Aug 10:36:43 10:40:23 18° 291° (WNW) 10:43:51 467.674
CANX-2 28 Aug 10:38:01 10:41:30 24° 288° (WNW) 10:44:53 2200.000
QB50P1 28 Aug 10:45:15 10:46:49 12° 69° (ENE) 10:48:36 145.935-145.965
CINEMA 3 28 Aug 10:47:37 10:52:23 43° 286° (WNW) 10:56:59 145.822/145.860
AUBIESAT-1 28 Aug 10:47:57 10:52:34 57° 71° (ENE) 10:57:14 437.475
SO-50 28 Aug 10:48:04 10:50:50 15° 47° (NE) 10:53:46 436.795
M-CUBED/EXP-1 PRIME 28 Aug 10:49:04 10:53:47 71° 71° (ENE) 10:58:35 437.505
Oscar 11 28 Aug 10:49:24 10:53:44 78° 101° (E) 10:58:01 145.826/435.025
VERMONT LUNAR 28 Aug 10:52:12 10:55:11 66° 25° (NNE) 10:58:10 437.305
YUBILEINY 28 Aug 10:53:00 11:00:41 33° 273° (W) 11:08:04 435.215
DANDE 28 Aug 11:00:24 11:03:48 14° 68° (ENE) 11:08:00 436.750
CUSAT 1 28 Aug 11:01:11 11:06:42 22° 70° (ENE) 11:12:53 437.405
ISS 28 Aug 11:01:18 11:04:14 31° 321° (NW) 11:07:10 145.825
HO-68 28 Aug 11:02:18 11:08:44 35° 292° (WNW) 11:15:02 435.675
CUBEBUG 2 28 Aug 11:05:27 11:10:06 61° 284° (WNW) 11:14:36 437.445
DELFI C3 28 Aug 11:06:53 11:10:53 82° 101° (E) 11:14:51 145.870
HUMSAT D 28 Aug 11:07:03 11:10:34 26° 95° (E) 11:14:07 437.325/437.525
SEEDS 28 Aug 11:07:39 11:10:18 16° 290° (WNW) 11:12:47 437.485
DOVE 4 28 Aug 11:11:28 11:13:54 13° 293° (WNW) 11:16:01 437.250
Cosmos 2504 28 Aug 11:13:52 11:21:54 45° 77° (ENE) 11:29:33 435.465 / 435.565
UNISAT 6 28 Aug 11:20:58 11:25:35 77° 259° (WSW) 11:30:18 437.425
UWE-3 28 Aug 11:21:08 11:25:38 52° 285° (WNW) 11:29:59 435.000/436.395/437.385
ZACube-1 28 Aug 11:23:28 11:27:58 66° 284° (WNW) 11:32:18 437.345
FUNcube-1 28 Aug 11:30:50 11:35:15 55° 285° (WNW) 11:39:32 145.935
Cosmos 2491 28 Aug 11:33:32 11:41:01 30° 288° (WNW) 11:48:16 435.465 / 435.565
POLYITAN 1 28 Aug 11:41:43 11:45:54 63° 76° (ENE) 11:50:08 437.675
POPSAT HIP 1 28 Aug 11:45:58 11:50:09 69° 76° (ENE) 11:54:24 437.405
ESTCUBE 1 28 Aug 11:48:58 11:52:11 20° 94° (E) 11:55:33 437.505/2401.250
DUCHIFAT 1 28 Aug 11:50:08 11:54:19 75° 77° (ENE) 11:58:34 145.980
TIGRISAT 28 Aug 11:51:44 11:55:58 35° 263° (W) 12:00:14 435.000
PHONESAT 2.4 28 Aug 11:54:55 11:57:55 28° 14° (NNE) 12:00:55 2401.200-2431.200
QB50P2 28 Aug 12:01:50 12:06:04 71° 259° (WSW) 12:10:19 145.880/145.840
NANOSAT C BR1 28 Aug 12:06:09 12:10:20 66° 259° (WSW) 12:14:34 145.865
ANTELSAT 28 Aug 12:07:46 12:11:28 23° 266° (W) 12:15:06 437.575/2403.000
DX 1 28 Aug 12:10:38 12:15:01 86° 102° (ESE) 12:19:24 434.975-435.025
50 SAT 28 Aug 12:14:24 12:18:17 74° 101° (E) 12:22:06 437.505
BUGSAT 1 28 Aug 12:15:47 12:19:49 87° 257° (WSW) 12:23:54 437.445
AISAT 28 Aug 12:16:17 12:20:44 62° 101° (ESE) 12:25:10 437.250
QB50P1 28 Aug 12:18:16 12:22:18 44° 261° (W) 12:26:23 145.935-145.965
AUBIESAT-1 28 Aug 12:25:35 12:27:36 12° 265° (W) 12:29:19 437.475
SO-50 28 Aug 12:27:01 12:31:52 60° 245° (WSW) 12:36:32 436.795
CUBEBUG 1 28 Aug 12:29:32 12:33:49 49° 100° (E) 12:38:06 437.445
PCSat 28 Aug 12:29:36 12:34:40 40° 59° (ENE) 12:39:46 145.827
VERMONT LUNAR 28 Aug 12:29:36 12:31:26 15° 217° (SW) 12:33:10 437.305
UKube-1 28 Aug 12:29:44 12:34:02 61° 285° (WNW) 12:38:18 .
DANDE 28 Aug 12:40:11 12:47:44 82° 81° (E) 12:56:18 436.750
SPROUT 28 Aug 12:41:46 12:44:44 18° 94° (E) 12:47:49 437.525
CUSAT 1 28 Aug 12:42:04 12:49:47 72° 264° (W) 12:57:59 437.405
HUMSAT D 28 Aug 12:43:00 12:46:09 20° 289° (WNW) 12:49:09 437.325/437.525
VELOX 1 28 Aug 12:45:44 12:50:09 61° 285° (WNW) 12:54:33 145.980
Oscar 19 28 Aug 12:47:01 12:48:57 12° 66° (ENE) 12:51:12 437.125/150
Cosmos 2504 28 Aug 13:06:35 13:13:49 31° 274° (W) 13:20:30 435.465 / 435.565
ESTCUBE 1 28 Aug 13:25:10 13:29:05 29° 287° (WNW) 13:32:55 437.505/2401.250
PHONESAT 2.4 28 Aug 13:32:36 13:36:00 71° 210° (SSW) 13:39:24 2401.200-2431.200
GONETS M04 28 Aug 13:43:52 13:49:23 19° 67° (ENE) 13:55:26
TISAT 1 28 Aug 14:00:31 14:04:48 86° 283° (WNW) 14:09:04 437.305
ITUPSAT 1 28 Aug 14:02:15 14:04:00 12° 91° (E) 14:06:05 437.325
CUBEBUG 1 28 Aug 14:07:58 14:09:47 12° 291° (WNW) 14:11:22 437.445
JAS-2 28 Aug 14:12:20 14:17:08 19° 63° (ENE) 14:22:26 435.910
PCSat 28 Aug 14:13:44 14:17:51 21° 253° (WSW) 14:21:45 145.827
SPROUT 28 Aug 14:17:03 14:20:51 29° 287° (WNW) 14:24:33 437.525
JUGNU 28 Aug 14:20:12 14:23:23 15° 166° (SSE) 14:26:40 437.505
Oscar 19 28 Aug 14:22:43 14:27:49 65° 259° (W) 14:32:58 437.125/150
DANDE 28 Aug 14:25:29 14:30:32 18° 271° (W) 14:35:21 436.750
CUSAT 1 28 Aug 14:29:30 14:31:38 11° 275° (W) 14:33:00 437.405
Gurwin Techsat 1B 28 Aug 14:32:29 14:37:28 44° 73° (ENE) 14:42:30 435.225
AO-7 28 Aug 14:35:17 14:38:49 14° 56° (ENE) 14:42:55 29.400- 29.500
BEESAT 28 Aug 14:36:00 14:40:13 32° 97° (E) 14:44:28 436.000
